カタログに戻る

THORAD AGENA D DEB

運用中SSO
NORAD 4772·DEBRIS·🇺🇸 United States

打ち上げ Apr 8, 1970 から Vandenberg Space Force Base

Loading…

次のパス (今後24時間)

TLE

最新Source: Space-Track

元期: Sep 14, 2026, 05:46 UTC

1 04772U 70025DS  26257.24044190  .00000231  00000-0  55413-3 0  9997
2 04772  99.7722  47.8982 0180406  77.6673  44.0376 13.27071021713987

AllMySatでTHORAD AGENA D DEBをリアルタイム追跡

Download on the App Store